• In Deutschland
  • Länderverzeichnis
  • Für 7 Tage
  • Wassertemperatur
  • Satellitenkarten
  • Wetterkarte
  • Widgets
  • user-avatar
    Anmelden

    Stündliche Wetter Severnyy

    Heute, 23 April, Montag

    Zeit Temperatur Niederschläge Wind Luftdruck Luftfeuchtigkeit
    00:00 +3°C° 0 mm 2 m/S 657 mmHg 43%
    01:00 +3°C° 0 mm 2 m/S 657 mmHg 42%
    02:00 +2°C° 0 mm 2 m/S 657 mmHg 44%
    03:00 +2°C° 0 mm 2 m/S 657 mmHg 46%
    04:00 +1°C° 0 mm 2 m/S 657 mmHg 48%
    05:00 +3°C° 0 mm 2 m/S 657 mmHg 45%
    06:00 +4°C° 0 mm 3 m/S 658 mmHg 41%
    07:00 +7°C° 0 mm 3 m/S 658 mmHg 38%
    08:00 +9°C° 0 mm 3 m/S 658 mmHg 34%
    09:00 +11°C° 0 mm 4 m/S 659 mmHg 31%
    10:00 +13°C° 0 mm 4 m/S 659 mmHg 28%
    11:00 +14°C° 0 mm 4 m/S 659 mmHg 25%
    12:00 +15°C° 0 mm 4 m/S 659 mmHg 23%
    13:00 +17°C° 0 mm 4 m/S 659 mmHg 20%
    14:00 +17°C° 0 mm 4 m/S 659 mmHg 20%
    15:00 +17°C° 0 mm 4 m/S 659 mmHg 20%
    16:00 +17°C° 0 mm 4 m/S 659 mmHg 20%
    17:00 +13°C° 0 mm 3 m/S 658 mmHg 25%
    18:00 +12°C° 0 mm 2 m/S 658 mmHg 30%
    19:00 +9°C° 0 mm 2 m/S 657 mmHg 31%
    20:00 +9°C° 0 mm 1 m/S 657 mmHg 32%
    21:00 +8°C° 0 mm 1 m/S 656 mmHg 33%
    22:00 +7°C° 0 mm 1 m/S 656 mmHg 34%
    23:00 +6°C° 0 mm 1 m/S 656 mmHg 35%

    Morgen, 24 April, Dienstag

    Zeit Temperatur Niederschläge Wind Luftdruck Luftfeuchtigkeit
    00:00 +5°C° 0 mm 0 m/S 656 mmHg 36%
    01:00 +4°C° 0 mm 0 m/S 656 mmHg 37%
    02:00 +5°C° 0 mm 1 m/S 655 mmHg 39%
    03:00 +5°C° 0 mm 1 m/S 655 mmHg 40%
    04:00 +4°C° 0 mm 1 m/S 655 mmHg 42%
    05:00 +6°C° 0 mm 1 m/S 655 mmHg 39%
    06:00 +8°C° 0 mm 1 m/S 655 mmHg 37%
    07:00 +10°C° 0 mm 1 m/S 655 mmHg 34%
    08:00 +12°C° 0 mm 2 m/S 655 mmHg 30%
    09:00 +14°C° 0 mm 2 m/S 655 mmHg 26%
    10:00 +16°C° 0 mm 3 m/S 655 mmHg 23%
    11:00 +18°C° 0 mm 3 m/S 655 mmHg 20%
    12:00 +19°C° 0 mm 4 m/S 655 mmHg 17%
    13:00 +21°C° 0 mm 5 m/S 654 mmHg 15%
    14:00 +21°C° 0 mm 4 m/S 654 mmHg 15%
    15:00 +21°C° 0 mm 4 m/S 653 mmHg 16%
    16:00 +21°C° 0 mm 4 m/S 653 mmHg 16%
    17:00 +18°C° 0 mm 3 m/S 652 mmHg 21%
    18:00 +16°C° 0 mm 2 m/S 651 mmHg 25%
    19:00 +13°C° 0 mm 1 m/S 650 mmHg 29%
    20:00 +12°C° 0 mm 1 m/S 650 mmHg 31%
    21:00 +9°C° 0 mm 2 m/S 650 mmHg 33%
    22:00 +8°C° 0 mm 2 m/S 650 mmHg 34%
    23:00 +7°C° 0 mm 2 m/S 651 mmHg 43%

    übermorgen, 25 April, Mittwoch

    Zeit Temperatur Niederschläge Wind Luftdruck Luftfeuchtigkeit
    00:00 +7°C° 0 mm 2 m/S 651 mmHg 52%
    01:00 +6°C° 0 mm 2 m/S 651 mmHg 61%
    02:00 +5°C° 0 mm 2 m/S 652 mmHg 68%
    03:00 +5°C° 0 mm 2 m/S 652 mmHg 74%
    04:00 +4°C° 0 mm 2 m/S 652 mmHg 80%
    05:00 +4°C° 0 mm 3 m/S 653 mmHg 76%
    06:00 +4°C° 0 mm 4 m/S 654 mmHg 72%
    07:00 +5°C° 0 mm 5 m/S 654 mmHg 68%
    08:00 +6°C° 0 mm 5 m/S 655 mmHg 62%
    09:00 +7°C° 0 mm 5 m/S 655 mmHg 56%
    10:00 +8°C° 0 mm 5 m/S 656 mmHg 50%
    11:00 +8°C° 0 mm 5 m/S 656 mmHg 45%
    12:00 +10°C° 0 mm 4 m/S 656 mmHg 41%
    13:00 +11°C° 0 mm 4 m/S 656 mmHg 37%
    14:00 +11°C° 0 mm 4 m/S 656 mmHg 36%
    15:00 +11°C° 0 mm 4 m/S 656 mmHg 35%
    16:00 +11°C° 0 mm 4 m/S 656 mmHg 33%
    17:00 +9°C° 0 mm 3 m/S 655 mmHg 38%
    18:00 +7°C° 0 mm 2 m/S 655 mmHg 43%
    19:00 +6°C° 0 mm 1 m/S 654 mmHg 48%
    20:00 +5°C° 0 mm 1 m/S 654 mmHg 51%
    21:00 +4°C° 0 mm 1 m/S 654 mmHg 54%
    22:00 +3°C° 0 mm 1 m/S 654 mmHg 57%
    23:00 +3°C° 0 mm 1 m/S 654 mmHg 58%

    26 April, Donnerstag

    Zeit Temperatur Niederschläge Wind Luftdruck Luftfeuchtigkeit
    00:00 +3°C° 0 mm 1 m/S 654 mmHg 58%
    01:00 +2°C° 0 mm 1 m/S 654 mmHg 58%
    02:00 +2°C° 0 mm 1 m/S 654 mmHg 59%
    03:00 +2°C° 0 mm 1 m/S 654 mmHg 60%
    04:00 +2°C° 0 mm 1 m/S 654 mmHg 61%
    05:00 +3°C° 0 mm 1 m/S 654 mmHg 55%
    06:00 +5°C° 0 mm 1 m/S 655 mmHg 50%
    07:00 +7°C° 0 mm 1 m/S 656 mmHg 45%
    08:00 +10°C° 0 mm 1 m/S 656 mmHg 41%
    09:00 +12°C° 0 mm 1 m/S 656 mmHg 36%
    10:00 +14°C° 0 mm 2 m/S 657 mmHg 32%
    11:00 +16°C° 0 mm 2 m/S 657 mmHg 30%
    12:00 +17°C° 0 mm 3 m/S 657 mmHg 28%
    13:00 +18°C° 0 mm 3 m/S 657 mmHg 26%
    14:00 +17°C° 0 mm 3 m/S 656 mmHg 30%
    15:00 +17°C° 0 mm 3 m/S 656 mmHg 33%
    16:00 +16°C° 0 mm 3 m/S 656 mmHg 36%
    17:00 +14°C° 0,1 mm 2 m/S 655 mmHg 44%
    18:00 +13°C° 0,1 mm 1 m/S 654 mmHg 52%
    19:00 +11°C° 0,1 mm 1 m/S 653 mmHg 60%
    20:00 +10°C° 0 mm 1 m/S 653 mmHg 64%
    21:00 +9°C° 0 mm 1 m/S 652 mmHg 67%
    22:00 +7°C° 0 mm 1 m/S 652 mmHg 71%
    23:00 +7°C° 0 mm 1 m/S 651 mmHg 72%

    27 April, Freitag

    Zeit Temperatur Niederschläge Wind Luftdruck Luftfeuchtigkeit
    00:00 +7°C° 0 mm 1 m/S 651 mmHg 73%
    01:00 +6°C° 0 mm 1 m/S 651 mmHg 75%
    02:00 +6°C° 0 mm 1 m/S 651 mmHg 77%
    03:00 +5°C° 0 mm 1 m/S 651 mmHg 79%
    04:00 +4°C° 0 mm 2 m/S 651 mmHg 80%
    05:00 +5°C° 0 mm 2 m/S 652 mmHg 75%
    06:00 +6°C° 0 mm 2 m/S 652 mmHg 70%
    07:00 +7°C° 0 mm 3 m/S 653 mmHg 65%
    08:00 +8°C° 0 mm 3 m/S 653 mmHg 60%
    09:00 +10°C° 0 mm 3 m/S 654 mmHg 55%
    10:00 +11°C° 0 mm 3 m/S 654 mmHg 50%
    11:00 +11°C° 0 mm 4 m/S 654 mmHg 49%
    12:00 +12°C° 0 mm 4 m/S 654 mmHg 47%
    13:00 +12°C° 0 mm 4 m/S 654 mmHg 45%
    14:00 +12°C° 0 mm 4 m/S 654 mmHg 46%
    15:00 +11°C° 0 mm 4 m/S 654 mmHg 46%
    16:00 +11°C° 0 mm 4 m/S 653 mmHg 46%
    17:00 +9°C° 0 mm 3 m/S 653 mmHg 51%
    18:00 +8°C° 0 mm 3 m/S 653 mmHg 55%
    19:00 +6°C° 0 mm 2 m/S 653 mmHg 60%
    20:00 +6°C° 0 mm 2 m/S 653 mmHg 64%
    21:00 +5°C° 0 mm 2 m/S 653 mmHg 68%
    22:00 +4°C° 0 mm 2 m/S 654 mmHg 72%
    23:00 +4°C° 0,1 mm 2 m/S 654 mmHg 73%

    28 April, Samstag

    Zeit Temperatur Niederschläge Wind Luftdruck Luftfeuchtigkeit
    00:00 +3°C° 0,1 mm 2 m/S 654 mmHg 74%
    01:00 +3°C° 0,1 mm 2 m/S 654 mmHg 75%
    02:00 +2°C° 0,1 mm 2 m/S 654 mmHg 76%
    03:00 +1°C° 0,1 mm 2 m/S 655 mmHg 78%
    04:00 +1°C° 0,1 mm 2 m/S 655 mmHg 79%
    05:00 0°C° 0 mm 3 m/S 655 mmHg 73%
    06:00 +1°C° 0 mm 3 m/S 656 mmHg 68%
    07:00 +1°C° 0 mm 4 m/S 657 mmHg 62%
    08:00 +3°C° 0 mm 4 m/S 657 mmHg 55%
    09:00 +4°C° 0 mm 4 m/S 657 mmHg 48%
    10:00 +5°C° 0 mm 5 m/S 658 mmHg 41%
    11:00 +6°C° 0,1 mm 5 m/S 657 mmHg 39%
    12:00 +6°C° 0,1 mm 5 m/S 657 mmHg 37%
    13:00 +6°C° 0,1 mm 5 m/S 657 mmHg 35%
    14:00 +6°C° 0,2 mm 5 m/S 657 mmHg 36%
    15:00 +6°C° 0,2 mm 5 m/S 657 mmHg 37%
    16:00 +5°C° 0,2 mm 5 m/S 657 mmHg 38%
    17:00 +4°C° 0 mm 4 m/S 656 mmHg 42%
    18:00 +3°C° 0 mm 3 m/S 656 mmHg 46%
    19:00 +2°C° 0 mm 2 m/S 656 mmHg 51%
    20:00 +1°C° 0 mm 2 m/S 656 mmHg 56%
    21:00 +1°C° 0 mm 1 m/S 656 mmHg 62%
    22:00 0°C° 0 mm 1 m/S 656 mmHg 67%
    23:00 0°C° 0 mm 1 m/S 655 mmHg 69%
    Mehr zeigen